Location: Allaman
(46.4708°N, 6.3955°E)
Time: 03:47:00
(UTC+00:00)

Daily predictions for brighter satellites

Satellite Brightness Start Highest point End
(mag) Time Altitude Azimuth Time Altitude Azimuth Time Altitude Azimuth
ATLAS CENTAUR R/B 4.2 00:07:30 10° WSW 00:13:18 68° NNW 00:29:18 10° NE
Cosmos 1825 2.8 00:13:02 38° SE 00:13:45 43° E 00:17:21 10° NNE
DELTA 2 R/B (1) 4.4 00:16:58 30° SSE 00:16:58 30° SSE 00:21:12 10° ESE
Cosmos 540 Rocket 4.3 00:15:11 28° SE 00:16:59 37° ESE 00:21:41 10° NE
Cosmos 1408 2.4 00:19:18 63° SSW 00:19:50 86° W 00:23:32 10° N
Cosmos 990 Rocket 3.9 00:15:09 10° NNW 00:20:23 85° WSW 00:22:37 35° SSE
SL-16 R/B 3.0 00:19:56 20° WSW 00:23:30 45° NW 00:28:57 10° NNE
Cosmos 405 Rocket 2.6 00:23:36 55° SSE 00:24:13 68° E 00:27:53 10° NNE
Cosmos 1242 Rocket 4.3 00:21:13 10° NNE 00:24:20 27° ENE 00:26:09 18° ESE
Cosmos 841 Rocket 4.3 00:23:03 27° SSE 00:25:01 38° ESE 00:29:45 10° NE
Cosmos 2058 3.5 00:24:22 35° SE 00:25:34 47° E 00:29:30 10° NNE
Cosmos 1656 Rocket 3.9 00:20:20 10° NNW 00:26:02 68° ENE 00:30:16 18° SE
USA 229 DEB 3.5 00:22:35 29° SW 00:26:08 89° SE 00:33:02 10° NE
USA 229 3.5 00:22:43 29° SW 00:26:14 88° SE 00:33:08 10° NE
Cosmos 2221 3.3 00:22:12 10° N 00:26:22 46° ENE 00:28:24 26° SE
Meteor 2-13 Rocket 4.4 00:23:59 33° S 00:26:57 88° E 00:33:10 10° N
Cosmos 2237 Rocket 4.4 00:23:07 10° W 00:27:07 19° NW 00:31:07 10° N
X-37B 1.7 00:28:47 34° ESE 00:28:47 34° ESE 00:30:46 10° E
Cosmos 1898 Rocket 3.4 00:28:25 10° NNW 00:33:41 83° WSW 00:36:10 32° SSE
Cosmos 1937 Rocket 3.6 00:28:38 10° NNW 00:33:59 75° ENE 00:37:19 23° SSE
Nadezhda 4 Rocket 4.2 00:30:48 27° SSE 00:34:06 62° E 00:40:09 10° NNE
NOSS 3-1 (C) 3.8 00:31:11 19° WSW 00:35:00 55° NW 00:41:20 10° NE
Cosmos 2369 Rocket 2.2 00:30:27 10° NNW 00:36:10 69° WSW 00:38:58 31° S
YAOGAN 11 4.1 00:35:34 37° SSE 00:37:18 90° WSW 00:41:51 10° NNW
Cosmos 1356 3.8 00:37:29 46° WSW 00:37:55 49° WNW 00:41:15 10° N
Aureole 3 Rocket 4.4 00:34:29 10° N 00:38:08 35° ENE 00:41:59 14° SE
USA 307 4.1 00:38:07 26° SE 00:38:19 26° SE 00:41:54 10° ENE
SJ 16-02 2.8 00:36:17 10° NW 00:39:37 22° W 00:40:01 21° WSW
CREW DRAGON DEMO-1 DEB 3.4 00:40:05 44° NNE 00:40:05 44° NNE 00:42:03 10° ENE
NOSS 2-3 (E) 4.5 00:42:31 22° WSW 00:45:00 46° NW 00:49:48 10° NNE
USA 215 4.3 00:39:32 10° NE 00:45:39 44° NNW 00:51:46 10° W
NOSS 3-1 (A) 3.4 00:42:41 27° SW 00:45:49 74° NW 00:52:13 10° NE
ATLAS 5 CENTAUR R/B 2.7 00:48:04 23° SE 00:48:58 25° ESE 00:52:29 10° ENE
Cosmos 2263 4.1 00:44:09 10° NNW 00:49:50 73° WSW 00:53:06 26° SSE
CZ-4 R/B 3.7 00:46:52 10° NNE 00:51:34 84° WNW 00:53:33 35° SSW
Helios 1B rocket 3.8 00:48:34 10° NE 00:52:12 30° E 00:54:08 20° SE
USA 308 3.7 00:53:27 32° SSE 00:54:09 34° SE 00:58:00 10° ENE
Cosmos 1633 3.7 00:53:22 26° SE 00:54:37 34° E 00:57:51 10° NNE
Cosmos 1932 4.4 00:49:02 10° NW 00:55:14 71° WSW 01:00:03 17° SSE
ADEOS Rocket 4.4 00:48:37 10° SE 00:55:16 42° ENE 01:01:22 10° N
Meteor 2-2 Rocket 4.4 00:50:40 10° NNW 00:56:41 73° W 01:00:07 27° S
CZ-3B R/B 4.2 00:47:35 10° WNW 00:57:04 37° N 01:00:19 10° ENE
UNK 4.4 00:54:25 17° SE 00:57:51 53° ENE 01:02:22 10° N
Helios 1A 3.1 01:00:06 38° SSW 01:01:26 56° W 01:05:35 10° NNW
Cosmos 1606 2.9 00:58:37 10° N 01:02:28 69° E 01:04:12 30° SSE
Cosmos 1570 Rocket 4.4 01:01:44 27° S 01:04:26 56° ESE 01:09:33 10° NNE
SL-16 R/B 2.7 00:59:52 15° SSE 01:05:09 76° ENE 01:11:21 10° NNW
Cosmos 372 Rocket 4.0 01:03:42 10° NNW 01:08:59 85° ENE 01:13:11 16° SSE
USA 305 3.2 01:10:32 35° SSW 01:11:54 50° SE 01:16:02 10° ENE
USA 290 3.0 01:11:15 33° SSE 01:12:06 42° ESE 01:15:10 10° NE
Cosmos 1092 Rocket 4.0 01:11:05 23° S 01:15:08 76° E 01:21:16 10° NNE
Lacrosse 4 Rocket 1.9 01:11:06 10° NNW 01:15:11 58° NE 01:19:10 10° SE
Cosmos 2098 Rocket 3.5 01:15:09 28° SSW 01:18:01 67° W 01:22:28 10° N
Cosmos 1763 Rocket 4.4 01:15:44 20° WSW 01:18:42 38° WNW 01:23:31 10° N
BREEZE-M R/B 3.0 01:18:11 31° SSW 01:19:21 43° SE 01:23:56 10° ENE
Cosmos 2208 Rocket 4.3 01:16:33 24° S 01:19:45 63° ESE 01:25:09 10° NNE
USA 267 4.2 01:19:19 22° SW 01:20:28 23° SW 01:25:33 10° WNW
Meteor 2-19 Rocket 4.5 01:16:27 23° S 01:20:30 83° E 01:26:39 10° N
Resurs 1-4 Rocket 2.1 01:15:46 10° NNE 01:21:07 85° ESE 01:24:24 24° SSW
Cosmos 1437 Rocket 3.6 01:17:53 10° NNW 01:21:23 33° W 01:22:18 29° WSW
OE (NEXTSAT) 4.2 01:22:34 26° WSW 01:24:21 79° S 01:27:48 10° E
Meteor 1-29 4.4 01:21:57 10° NNE 01:25:02 31° E 01:26:57 18° SSE
SL-4 R/B 3.3 01:22:28 10° WNW 01:25:58 36° N 01:29:15 10° ENE
Cosmos 1943 Rocket 4.0 01:26:04 10° WNW 01:28:34 13° W 01:29:32 13° WSW
Cosmos 1842 Rocket 4.2 01:27:27 10° NNW 01:31:29 38° W 01:33:14 26° SW
NOSS 2-2 (D) 3.1 01:30:21 33° SSW 01:31:41 65° SE 01:35:19 10° NE
NPP 3.7 01:26:53 10° NNE 01:32:19 84° ESE 01:35:57 22° SSW
ADEOS II 2.7 01:27:36 10° NNE 01:32:45 51° E 01:36:50 16° S
USA 306 2.9 01:32:05 27° SW 01:34:16 71° SE 01:38:30 10° ENE
Cosmos 921 Rocket 3.1 01:32:38 27° SW 01:34:44 61° WNW 01:38:54 10° NNE
Lacrosse 5 rocket 3.6 01:32:04 10° NW 01:35:01 23° NNE 01:38:02 10° ENE
Meteor 2-3 Rocket 4.2 01:31:29 15° SSE 01:35:59 55° E 01:41:25 10° NNE
FALCON 9 DEB 2.9 01:33:20 10° WNW 01:36:44 72° SSW 01:40:07 10° SE
Cosmos 1943 3.9 01:33:25 19° WSW 01:37:15 46° NW 01:42:42 10° NNE
CZ-2D R/B 2.1 01:34:38 10° N 01:39:50 70° WNW 01:43:15 22° SSW
IDEFIX/ARIANE 42P 3.7 01:42:13 10° NNE 01:47:05 38° E 01:51:54 10° SSE
Cosmos 2151 2.9 01:44:56 23° SSW 01:47:32 82° W 01:51:46 10° N
Cosmos 1825 4.3 01:47:48 12° W 01:49:28 15° WNW 01:51:42 10° NNW
AQUA 3.8 01:47:08 10° N 01:51:55 78° WNW 01:55:17 19° SSW
Cosmos 1076 Rocket 4.1 01:49:45 22° SW 01:52:03 42° WNW 01:56:07 10° N
Cosmos 1437 3.5 01:52:54 10° NW 01:55:21 27° W 01:55:51 25° WSW
Meteor 1-26 Rocket 4.5 01:49:51 10° N 01:55:44 80° ENE 02:01:43 10° SSE
Cosmos 1242 Rocket 4.1 01:56:15 10° NW 01:59:00 21° W 02:00:05 18° WSW
DELTA 2 R/B (1) 4.0 01:57:41 13° WSW 02:02:12 41° S 02:07:23 10° ESE
Cosmos 2221 4.3 02:00:43 10° NW 02:03:32 17° W 02:05:13 14° WSW
X-37B 0.7 02:01:04 10° W 02:04:08 51° SSW 02:07:13 10° ESE
BREEZE-M DEB (TANK) 1.9 02:04:02 10° WNW 02:06:25 56° NNE 02:08:53 10° E
CBERS-1 4.4 02:01:22 10° NNE 02:06:29 63° ESE 02:11:26 11° S
IRS-1D 3.6 02:01:34 10° NNE 02:06:44 79° ESE 02:11:14 13° S
Cosmos 1812 4.1 02:06:36 10° N 02:10:14 38° ENE 02:13:49 10° SE
Cosmos 1553 Rocket 4.0 02:04:16 10° N 02:10:36 81° W 02:16:47 10° S
NOSS 2-2 (E) 4.0 02:08:03 15° WSW 02:10:37 40° NW 02:14:19 10° NNE
Cosmos 2292 Rocket 2.5 02:09:53 20° SSW 02:11:47 71° W 02:14:46 10° N
FALCON 9 DEB 3.3 02:12:34 10° NW 02:15:41 65° NNE 02:18:48 10° ESE
GPS 2-04 Rocket1 4.3 02:15:43 16° SSW 02:16:37 17° S 02:19:12 10° SE
S3M 4.1 02:10:29 10° N 02:16:40 79° E 02:22:53 10° SSE
Cosmos 1782 2.7 02:13:10 10° N 02:17:11 81° W 02:21:12 10° S
USA 281 3.4 02:11:01 10° SSE 02:17:35 82° ENE 02:24:11 10° NNW
Meteor 2-14 Rocket 4.5 02:11:39 10° S 02:17:41 87° E 02:23:51 10° N
USA 307 3.1 02:14:12 13° WSW 02:18:01 67° NNW 02:22:15 10° NE
Cosmos 2369 Rocket 4.2 02:18:43 10° W 02:19:04 10° W 02:19:25 10° W
Cosmos 1271 Rocket 2.9 02:15:23 10° N 02:19:07 69° ENE 02:22:51 10° SSE
MSX 4.4 02:13:53 10° NNE 02:19:33 55° E 02:25:10 10° S
NOSS 2-2 (C) 4.1 02:21:26 12° WSW 02:24:17 38° NW 02:27:55 10° NNE
CZ-4C R/B 3.0 02:21:31 10° SSE 02:24:58 85° ENE 02:28:28 10° NNW
ERBS 2.6 02:24:39 16° SSW 02:27:01 50° SE 02:30:10 10° ENE
Helios 1B rocket 3.8 02:23:56 10° N 02:27:21 26° WNW 02:30:26 12° WSW
Cosmos 1328 Rocket 3.5 02:26:49 10° N 02:31:12 86° W 02:35:34 10° S
NOSS 3-2 (A) 4.4 02:24:17 10° NW 02:31:44 73° NE 02:40:15 10° SE
FALCON 9 DEB 2.7 02:29:33 10° WNW 02:32:38 70° SSW 02:35:41 10° SE
ATLAS 5 CENTAUR R/B 2.4 02:29:34 10° WSW 02:33:18 39° NW 02:37:35 10° NNE
USA 308 3.4 02:29:48 10° WSW 02:33:59 56° NNW 02:38:12 10° NE
Cosmos 2298 Rocket 4.5 02:29:07 10° NW 02:34:07 42° WSW 02:39:06 10° S
Spot 1 4.4 02:30:40 10° SSE 02:35:45 84° WSW 02:40:39 10° NNW
SeaSat 1 2.8 02:31:06 10° NE 02:36:00 62° ESE 02:40:53 10° SSW
FALCON 9 DEB 2.7 02:36:23 10° WNW 02:39:31 79° SSW 02:42:37 10° SE
Meteor 2-6 Rocket 4.4 02:34:10 10° N 02:40:07 84° E 02:45:52 10° SSE
ADEOS Rocket 3.8 02:33:50 10° SSW 02:40:43 43° W 02:47:02 10° NNW
FALCON 9 DEB 2.8 02:39:49 10° WNW 02:42:53 61° SW 02:45:56 10° SE
Cosmos 1833 Rocket 3.8 02:42:22 10° S 02:47:37 41° ESE 02:52:53 10° NE
SL-16 R/B 3.9 02:45:03 10° SW 02:49:23 19° W 02:53:43 10° NW
Meteor 1-28 Rocket 4.2 02:46:06 10° SSW 02:49:25 29° W 02:52:46 10° NW
IRS-P3 4.2 02:46:00 10° NNE 02:51:22 89° ESE 02:56:41 10° SSW
Tianhe-1 3.4 02:50:19 10° S 02:51:51 13° SSE 02:53:23 10° SE
USA 305 3.8 02:47:50 10° W 02:51:55 44° NNW 02:56:01 10° NE
Lacrosse 4 Rocket 3.1 02:51:01 10° WNW 02:53:21 15° WSW 02:55:40 10° SW
Cosmos 1125 Rocket 4.1 02:48:43 10° NW 02:53:32 37° WSW 02:58:21 10° SSW
Cosmos 1151 Rocket 3.7 02:50:49 10° NNW 02:54:44 36° W 02:58:39 10° SSW
Cosmos 883 Rocket 4.5 02:48:56 10° N 02:55:06 84° W 03:01:13 10° S
Cosmos 2266 Rocket 4.0 02:50:33 10° SSW 02:56:39 74° W 03:02:43 10° N
CZ-4B R/B 3.7 02:53:50 10° NNE 02:59:09 81° ESE 03:04:21 10° SSW
Resurs 1-4 Rocket 4.0 02:57:01 10° NNW 03:00:16 17° WNW 03:03:29 10° W
ARIANE 5 R/B 2.5 02:55:16 10° NNE 03:00:18 86° ESE 03:05:19 10° SSW
OE (NEXTSAT) 4.3 02:58:22 10° W 03:01:48 70° SSW 03:05:14 10° ESE
CZ-4C R/B 2.2 02:57:04 10° SSW 03:01:54 74° SE 03:07:46 10° NE
Cosmos 1515 Rocket 3.6 02:57:55 10° NNW 03:02:20 72° W 03:06:45 10° S
Cosmos 1766 Rocket 4.4 02:59:41 10° SW 03:03:47 36° WNW 03:07:56 10° N
Cosmos 1408 Rocket 3.7 03:01:54 10° SSW 03:06:18 64° W 03:10:46 10° N
USA 238 DEB 4.0 03:02:32 10° NW 03:09:49 86° NE 03:17:26 10° SE
CENTAUR R/B 3.4 03:02:15 10° NW 03:10:24 85° NE 03:19:21 10° SE
